Regional Weather Roundup
Issued by NWS

Home | Current Version | Previous Version | Graphics & Text | Print | Product List | Glossary On
Versions: 1 2 3 4 5 6 7 8 9 10 11 12 13 14 15 16 17 18 19 20 21 22 23 24 25 26 27 28 29 30 31 32 33 34 35 36 37 38 39 40 41 42 43 44 45 46 47 48 49 50
000
ASUS43 KLSX 081807
RWRMO

WEATHER SUMMARY FOR MISSOURI
NATIONAL WEATHER SERVICE SPRINGFIELD MO
1200 PM CST MON FEB 08 2016

NOTE: "FAIR" INDICATES FEW OR NO CLOUDS BELOW 12,000 FEET WITH NO
       SIGNIFICANT WEATHER AND/OR OBSTRUCTIONS TO VISIBILITY.
       CURRENT SKY AND/OR WEATHER CONDITIONS ARE NOT AVAILABLE FOR
       CHILLICOTHE AND FARMINGTON.

MOZ001>031-035>038-043-044-053-054-081900-
...NORTHERN AND WESTERN MISSOURI...

CITY           SKY/WX    TMP DP  RH WIND       PRES   REMARKS
KANSAS CTY INT FLURRIES  31  20  63 NW23G39   30.05F WCI  18
6HR MIN TEMP:  28; 6HR MAX TEMP:  33; 6HR PCP: TRACE;

KANSAS C DTWN  FLURRIES  32  21  64 NW22G32   30.07S WCI  19
6HR MIN TEMP:  31; 6HR MAX TEMP:  35; 6HR PCP: TRACE;

LEE`S SUMMIT   LGT SNOW  30  21  69 NW15G26   30.06S WCI  19
6HR MIN TEMP:  29; 6HR MAX TEMP:  34; 6HR PCP: TRACE;

ST JOSEPH      CLOUDY    31  18  58 N25G40    30.08F WCI  17
6HR MIN TEMP:  29; 6HR MAX TEMP:  31; 6HR PCP: TRACE;

CHILLICOTHE      N/A     26  15  63 NW17G35   30.02S WCI  13
6HR MIN TEMP:  25; 6HR MAX TEMP:  28;

KIRKSVILLE     FLURRIES  21  10  62 NW22G30   29.95R WCI   5
6HR MIN TEMP:  20; 6HR MAX TEMP:  24; 6HR PCP:  0.09;


$$
MOZ066>068-077>081-088>096-101>105-081900-
...SOUTHWEST MISSOURI...

CITY           SKY/WX    TMP DP  RH WIND       PRES   REMARKS
SPRINGFIELD    CLOUDY    34  16  47 NW21G31   30.01R WCI  22
6HR MIN TEMP:  34; 6HR MAX TEMP:  36; 6HR PCP: TRACE;

JOPLIN         LGT SNOW  34  26  72 NW17G24   30.12R WCI  23
6HR MIN TEMP:  33; 6HR MAX TEMP:  39; 6HR PCP: TRACE;


$$
MOZ032>034-039>042-045>050-055>058-069>072-081900-
...CENTRAL MISSOURI...

CITY           SKY/WX    TMP DP  RH WIND       PRES   REMARKS
COLUMBIA       CLOUDY    27  13  55 NW24G31   29.95R WCI  12
6HR MIN TEMP:  26; 6HR MAX TEMP:  29; 6HR PCP: TRACE;

JEFFERSON CITY CLOUDY    29  15  56 NW22G32   29.97R WCI  15
6HR MIN TEMP:  28; 6HR MAX TEMP:  30; 6HR PCP: TRACE;

ROLLA          CLOUDY    28  17  63 NW21G36   29.90F WCI  15
6HR MIN TEMP:  26; 6HR MAX TEMP:  29;

SEDALIA        CLOUDY    30  16  56 NW26G45   30.01S WCI  16
6HR MIN TEMP:  28; 6HR MAX TEMP:  31; 6HR PCP: TRACE;

WARRENSBURG    FLURRIES  30  23  74 NW21G30   30.05S WCI  17
OSAGE BEACH    CLOUDY    30  12  47 W21G35    29.98S WCI  17

$$
MOZ051-052-059>065-081900-
...EAST CENTRAL MISSOURI...

CITY           SKY/WX    TMP DP  RH WIND       PRES   REMARKS
ST LOUIS INTL  FLURRIES  30  14  51 NW23G30   29.88S WCI  17
6HR MIN TEMP:  28; 6HR MAX TEMP:  35; 6HR PCP: TRACE;

SPIRIT OF STL  FLURRIES  27  16  63 W23G31    29.90S WCI  12
6HR MIN TEMP:  27; 6HR MAX TEMP:  34; 6HR PCP: TRACE;

ST CHARLES     CLOUDY    27  15  61 NW23G31   29.89R WCI  12
6HR MIN TEMP:  27; 6HR MAX TEMP:  33; 6HR PCP: TRACE;


$$
MOZ072>076-082>087-097>100-106>115-081900-
...SOUTH CENTRAL AND SOUTHEAST MISSOURI...

CITY           SKY/WX    TMP DP  RH WIND       PRES   REMARKS
CAPE GIRARDEAU CLOUDY    37  22  54 NW22G29   29.87F WCI  26
6HR MIN TEMP:  32; 6HR MAX TEMP:  37; 6HR PCP: TRACE;

FARMINGTON     FLURRIES  30  16  56 W17G24    29.88S WCI  18
6HR MIN TEMP:  29; 6HR MAX TEMP:  34; 6HR PCP: TRACE;

POPLAR BLUFF   PTSUNNY   39  18  42 NW20G31   29.90S WCI  29
6HR MIN TEMP:  36; 6HR MAX TEMP:  40; 6HR PCP: TRACE;

WEST PLAINS    CLOUDY    36  16  44 NW20G30   29.92S WCI  25
6HR MIN TEMP:  34; 6HR MAX TEMP:  38;


$$


USA.gov is the U.S. government's official web portal to all federal, state and local government web resources and services.